Skip Page Navigation
NASA JPL Caltech
NASA Logo - Jet Propulsion Laboratory + View the NASA Portal
+ Near-Earth Object (NEO) Program
Search JPL
JPL Home Earth Solar System Stars & Galaxies Technology
JPL Solar System Dynamics
BODIES ORBITS EPHEMERIDES TOOLS PHYSICAL DATA DISCOVERY FAQ SITE MAP
JPL Small-Body Database Browser
Search: [ help ]  
5193 Tanakawataru (1992 ET)
Classification: Main-belt Asteroid          SPK-ID: 2005193
Ephemeris | Orbit Diagram | Orbital Elements | Physical Parameters | Discovery Circumstances | Close-Approach Data ]

[ show orbit diagram ]
Orbital Elements at Epoch 2457000.5 (2014-Dec-09.0) TDB
Reference: JPL 10 (heliocentric ecliptic J2000)
 Element Value Uncertainty (1-sigma)   Units 
e .1587606766208302 5.6151e-08  
a 3.178865354812012 2.4788e-08 AU
q 2.674186540195541 1.805e-07 AU
i 2.70959660058753 6.1752e-06 deg
node 90.97036164748651 0.00013245 deg
peri 17.78661267658465 0.0001344 deg
M 56.14859622287462 2.0375e-05 deg
tp 2456677.618599181467
(2014-Jan-20.11859918)
0.00011659 JED
period 2070.172935994392
5.67
2.4214e-05
6.629e-08
d
yr
n .1738985153078898 2.034e-09 deg/d
Q 3.683544169428483 2.8723e-08 AU
  Orbit Determination Parameters
   # obs. used (total)      1214  
   data-arc span      38218 days (104.64 yr)  
   first obs. used      1909-10-05  
   last obs. used      2014-05-25  
   planetary ephem.      DE431  
   SB-pert. ephem.      SB431-BIG16  
   condition code      0  
   fit RMS      .47999  
   data source      ORB  
   producer      Otto Matic  
   solution date      2014-Jun-16 13:31:01  

Additional Information
 Earth MOID = 1.69102 AU 
 T_jup = 3.179 
[ show covariance matrix ]

Ephemeris | Orbit Diagram | Orbital Elements | Physical Parameters | Discovery Circumstances | Close-Approach Data ]

Physical Parameter Table
Parameter Symbol Value Units Sigma Reference Notes
absolute magnitude H 11.9 mag n/a MPO296177  

5193 Tanakawataru           Discovered 1992 Mar. 7 by S. Ueda and H. Kaneda at Kushiro.
Wataru Tanaka (b. 1939) was a professor at the National Astronomical Observatory of Japan who specialized in spectroscopic studies of planets and late-type stars.
NOTE: some special characters may not display properly (any characters within {} are an attempt to place the proper accent above a character)
Reference: 20070601/MPCPages.arcLast Updated: 2007-06-06

[ show close-approach data ]
Alternate Designations
 1992 ET = 1952 DQ = 1952 FG = 1973 YY1 = 1975 FQ = 1979 YO8 = 1984 UQ4 = 1989 RA5 = 1990 VA14 = 1990 WF13 = A909 TD 
Ephemeris | Orbit Diagram | Orbital Elements | Physical Parameters | Discovery Circumstances | Close-Approach Data ]
ABOUT SSD CREDITS/AWARDS PRIVACY/COPYRIGHT GLOSSARY LINKS
FirstGov 2014-Sep-20 22:03 UT
(server date/time)  
NASA Home Page
Site Manager:   Donald K. Yeomans
Webmaster  Alan B. Chamberlin